Other Surface Observations
Issued by NWS

Home | Current Version | Previous Version | Text Only | Print | Product List | Glossary On
Versions: 1 2 3 4 5 6 7 8 9 10 11 12 13 14 15 16 17 18 19 20 21 22 23 24 25 26 27 28 29 30 31 32 33 34 35 36 37 38 39 40 41 42 43 44 45 46 47 48 49 50
000
SXUS52 KTAE 232018
OSOTAE
OSOTAE
North Florida/South Alabama/Southwest Georgia Weather Roundup
National Weather Service Tallahassee Florida
400 PM EDT THU OCT 23 2014

Note: "fair" indicates few or no clouds below 12,000 feet with no
significant weather and/or obstructions to visibility.

!FLZ017-115-028-034-025-232100
...North Florida...

CITY           SKY/WX    TMP DP  RH WIND       PRES   REMARKS
TALLAHASSEE    SUNNY     77  39  25 N6        30.00F
APALACHICOLA   SUNNY     75  45  34 SE12      29.99F
PERRY          SUNNY     73  37  27 N10       29.99F
CROSS CITY       N/A     77  48  35 VRB7      29.97F
JACKSONVILLE   MOSUNNY   72  46  39 VRB7      29.99F
$$

!FLZ112-006-005-002-011-232100
...Florida Panhandle...

CITY           SKY/WX    TMP DP  RH WIND       PRES   REMARKS
MARIANNA       SUNNY     75  43  31 NE8       30.01F
BONIFAY        NOT AVBL
PANAMA CITY NW FAIR      78  41  26 VRB6      29.99F
TYNDALL AFB    SUNNY     76  45  33 N9        30.00F
TYND DRONE APT FAIR      75  44  33 MISG      29.99F
DE FUNIAK SPR  FAIR      73  42  32 N3        30.03S
EGLIN AFB      MOSUNNY   75  47  36 S6        30.02F
DESTIN         SUNNY     75  43  31 CALM      30.02F
HURLBURT       SUNNY     73  43  33 CALM      30.00F
CRESTVIEW      SUNNY     76  40  27 NE7       30.04S
PENSACOLA      SUNNY     75  41  29 N7        30.02F
$$

!ALZ063-066-232100
...South Alabama...

CITY           SKY/WX    TMP DP  RH WIND       PRES   REMARKS
DOTHAN         SUNNY     73  41  31 NE5       30.05F
OZARK CAIRNS   SUNNY     73  42  33 NE8       30.02F
FT RUCKER HELI SUNNY     74  42  31 NE7       30.01F
RUCKER HELI 3  FAIR      74  42  32 VRB7      30.04F
RUCKER HELI 2  FAIR      74  42  31 VRB5      30.02F
FLORALA APT    SUNNY     76  42  29 NE5       30.05S
ANDALUSIA      SUNNY     79  41  25 NE8       30.03F
TROY           SUNNY     73  42  32 CALM      30.04F
EUFALA         FAIR      73  42  32 CALM      30.02F
MOBILE         MOSUNNY   73  43  33 NE8       30.04F
$$

!GAZ120>161-232100
...Southwest and South Central Georgia...

CITY           SKY/WX    TMP DP  RH WIND       PRES   REMARKS
THOMASVILLE    FAIR      75  43  31 E8        30.02F
BAINBRIDGE     SUNNY     79  46  31 N3        30.01F
MOODY AFB      SUNNY     73  42  33 VRB7      30.01F
VALDOSTA       SUNNY     74  36  25 NE5       30.00F
MOULTRIE       SUNNY     72  43  35 CALM      30.02F
BLAKELY        SUNNY     75  43  31 NE6         N/A
ALBANY         SUNNY     74  43  32 VRB5      30.04F
TIFTON         FAIR      71  39  30 NW3       30.02S
FITZGERALD     FAIR      74  38  28 N3        30.04S
CORDELE        FAIR      73  41  31 N7        30.03F
AMERICUS       FAIR      70  43  37 NW3       30.04F
HOMERVILLE     FAIR      73  45  35 CALM      30.01F
$$

!GMZ750-755-770-775-232100
...Coastal and Buoy Obs...

STATION/POSITION TIME  TEMP    WIND        PRES    VSBY  WAVE
                       AIR SEA DIR/SP/G                  HT/PER
                 (UTC) (F)     (DEG/KT/KT) (MB)    (MI)  (FT/S)
KEATON BEACH     2000   74      10/  7/ 11 1015.4F
CEDAR KEY        1956   74      60/  9/ 10 1014.9F
C TOWER          2000   68      40/ 13/ 15 1015.6F
APALACHICOLA BUO 2000   72 81   60/ 14/ 16 1014.5F         4/ 6
PANAMA CITY BUOY 1940   71 80   60/ 14/ 17 1015.6F         5/ 6
MOBILE BUOY      1910   72 80   70/ 12/ 17 1016.7F         3/ 6
ORANGE BCH AL BU 2000   69 78   70/  6/ 10 1016.9F         3/ 6
$$



USA.gov is the U.S. government's official web portal to all federal, state and local government web resources and services.